Location: Ostrava
(49.8330°N, 18.2830°E)
Time: 07:51:31
(UTC+01:00)

Cosmos 1400 Rocket - Visible Passes

Search period start: 01 November 2014 00:00
Search period end: 11 November 2014 00:00
Orbit: 529 x 579 km, 81.2° (Epoch: 31 October)

Date Brightness Start Highest point End Pass type
(mag) Time Alt. Az. Time Alt. Az. Time Alt. Az.
01 Nov 5.9 18:18:18 10° W 18:20:19 13° WNW 18:22:20 10° NNW visible
02 Nov 6.0 18:15:55 10° W 18:17:28 12° WNW 18:19:00 10° NW visible
03 Nov 6.1 18:13:48 10° WNW 18:14:36 10° WNW 18:15:24 10° NW visible
